User: anonymous   Login
Location: Unspecified
(0.0000°N, 0.0000°E)
Time: 09:17:02
(UTC+00:00)
Language:

P83-1 Hilat - Orbit

View from above orbital plane
View from above orbital plane
View from above satellite
View from above satellite

Ground track
Ground track

The orbit data is extracted from the following two-line orbital elements,

1 14154U 83063A   17268.93921604 +.00000116 +00000-0 +33925-4 0  9997
2 14154 082.0242 235.0508 0039856 200.4551 212.7562 14.36302599789984
Epoch (UTC): 25 September 2017 22:32:28
Eccentricity: 0.0039856
inclination: 82.0242°
perigee height: 742 km
apogee height: 799 km
right ascension of ascending node: 235.0508°
argument of perigee: 200.4551°
revolutions per day: 14.36302599
mean anomaly at epoch: 212.7562°
orbit number at epoch: 78998

The dashed part of the orbit path shows where the satellite is in the earth's shadow,  

DLR